�������C�����ː����j�^�v���󋵏��
Date,Time,Cs137(Bq/L),Cs134(Bq/L),�S��(Bq/L)
2016/12/07,00:00,0.77,0.12,ND
2016/12/07,00:10,0.76,0.12,ND
2016/12/07,00:20,0.79,0.12,ND
2016/12/07,00:30,0.81,0.11,ND
2016/12/07,00:40,0.82,0.11,ND
2016/12/07,00:50,0.84,0.11,ND
2016/12/07,01:00,0.99,0.075,ND
2016/12/07,01:10,0.84,0.10,ND
2016/12/07,01:20,0.84,0.11,ND
2016/12/07,01:30,0.85,0.11,ND
2016/12/07,01:40,0.82,0.12,ND
2016/12/07,01:50,0.81,0.12,ND
2016/12/07,02:00,0.81,0.13,ND
2016/12/07,02:10,0.82,0.12,ND
2016/12/07,02:20,0.82,0.11,ND
2016/12/07,02:30,0.82,0.12,ND
2016/12/07,02:40,0.84,0.11,ND
2016/12/07,02:50,0.95,0.081,ND
2016/12/07,03:00,0.86,0.11,ND
2016/12/07,03:10,0.86,0.12,ND
2016/12/07,03:20,0.86,0.12,ND
2016/12/07,03:30,0.84,0.11,ND
2016/12/07,03:40,0.85,0.11,9.0
2016/12/07,03:50,1.0,0.069,ND
2016/12/07,04:00,1.0,0.074,9.0
2016/12/07,04:10,1.0,0.073,ND
2016/12/07,04:20,1.0,0.067,ND
2016/12/07,04:30,1.0,0.079,8.9
2016/12/07,04:40,0.88,0.10,10
2016/12/07,04:50,0.87,0.10,9.5
2016/12/07,05:00,0.84,0.11,ND
2016/12/07,05:10,0.84,0.11,8.9
2016/12/07,05:20,0.80,0.11,ND
2016/12/07,05:30,0.83,0.10,ND
2016/12/07,05:40,0.84,0.10,ND
2016/12/07,05:50,0.97,0.080,ND
2016/12/07,06:00,0.94,0.074,9.2
2016/12/07,06:10,0.91,0.078,11
2016/12/07,06:20,0.77,0.10,10
2016/12/07,06:30,0.74,0.10,10
2016/12/07,06:40,0.72,0.10,9.5
2016/12/07,06:50,0.71,0.099,10
2016/12/07,07:00,0.72,0.086,9.5
2016/12/07,07:10,0.71,0.084,9.0
2016/12/07,07:20,0.70,0.084,9.9
2016/12/07,07:30,0.68,0.083,ND
2016/12/07,07:40,0.65,0.087,ND
2016/12/07,07:50,0.63,0.092,ND
2016/12/07,08:00,0.61,0.099,ND
2016/12/07,08:10,0.62,0.10,ND
2016/12/07,08:20,0.61,0.10,ND
2016/12/07,08:30,0.62,0.098,ND
2016/12/07,08:40,0.65,0.085,ND
2016/12/07,08:50,0.64,0.091,ND
2016/12/07,09:00,0.65,0.079,9.0
2016/12/07,09:10,0.65,0.084,9.9
2016/12/07,09:20,0.65,0.082,ND
2016/12/07,09:30,0.66,0.079,ND
2016/12/07,09:40,0.64,0.084,ND
2016/12/07,09:50,0.67,0.077,8.9
2016/12/07,10:00,0.69,0.083,ND
2016/12/07,10:10,0.68,0.086,ND
2016/12/07,10:20,0.72,0.079,9.7
2016/12/07,10:30,0.75,0.082,ND
2016/12/07,10:40,0.75,0.091,ND
2016/12/07,10:50,0.76,0.091,ND
2016/12/07,11:00,0.77,0.091,ND
2016/12/07,11:10,0.90,0.067,9.5
2016/12/07,11:20,0.89,0.075,ND
2016/12/07,11:30,0.74,0.11,ND
2016/12/07,11:40,0.76,0.10,ND
2016/12/07,11:50,0.76,0.10,10
2016/12/07,12:00,0.74,0.11,9.0
2016/12/07,12:10,0.84,0.065,9.6
2016/12/07,12:20,0.75,0.096,10
2016/12/07,12:30,0.75,0.11,10
2016/12/07,12:40,0.74,0.12,10
2016/12/07,12:50,0.75,0.12,11
2016/12/07,13:00,0.76,0.12,9.7
2016/12/07,13:10,0.77,0.12,ND
2016/12/07,13:20,0.74,0.12,ND
2016/12/07,13:30,0.78,0.11,9.0
2016/12/07,13:40,0.73,0.11,ND
2016/12/07,13:50,0.74,0.10,ND
2016/12/07,14:00,0.71,0.11,ND
2016/12/07,14:10,0.69,0.11,ND
2016/12/07,14:20,0.69,0.11,ND
2016/12/07,14:30,0.66,0.11,ND
2016/12/07,14:40,0.66,0.10,ND
2016/12/07,14:50,0.63,0.11,ND
2016/12/07,15:00,0.64,0.10,ND
2016/12/07,15:10,0.65,0.091,ND
2016/12/07,15:20,0.64,0.085,ND
2016/12/07,15:30,0.62,0.092,9.0
2016/12/07,15:40,0.64,0.090,9.3
2016/12/07,15:50,0.65,0.087,10
2016/12/07,16:00,0.65,0.079,ND
2016/12/07,16:10,0.62,0.089,ND
2016/12/07,16:20,0.64,0.082,ND
2016/12/07,16:30,0.66,0.073,ND
2016/12/07,16:40,0.78,0.042,ND
2016/12/07,16:50,0.78,0.044,ND
2016/12/07,17:00,0.77,0.051,ND
2016/12/07,17:10,0.65,0.071,10
2016/12/07,17:20,0.81,0.043,10
2016/12/07,17:30,0.80,0.043,ND
2016/12/07,17:40,0.80,0.042,ND
2016/12/07,17:50,0.67,0.076,ND
2016/12/07,18:00,0.68,0.075,ND
2016/12/07,18:10,0.67,0.077,ND
2016/12/07,18:20,0.66,0.086,ND
2016/12/07,18:30,0.66,0.092,ND
2016/12/07,18:40,0.67,0.089,ND
2016/12/07,18:50,0.82,0.054,ND
2016/12/07,19:00,0.82,0.054,ND
2016/12/07,19:10,0.81,0.056,ND
2016/12/07,19:20,0.80,0.063,ND
2016/12/07,19:30,0.78,0.067,ND
2016/12/07,19:40,0.60,0.10,ND
2016/12/07,19:50,0.60,0.11,ND
2016/12/07,20:00,0.58,0.11,ND
2016/12/07,20:10,0.59,0.098,ND
2016/12/07,20:20,0.60,0.096,ND
2016/12/07,20:30,0.61,0.092,9.3
2016/12/07,20:40,0.64,0.085,10
2016/12/07,20:50,0.64,0.077,9.3
2016/12/07,21:00,0.63,0.080,11
2016/12/07,21:10,0.60,0.090,12
2016/12/07,21:20,0.59,0.089,12
2016/12/07,21:30,0.57,0.10,13
2016/12/07,21:40,0.54,0.11,12
2016/12/07,21:50,0.56,0.10,13
2016/12/07,22:00,0.58,0.099,14
2016/12/07,22:10,0.59,0.094,12
2016/12/07,22:20,0.59,0.086,8.9
2016/12/07,22:30,0.61,0.079,10
2016/12/07,22:40,0.61,0.080,ND
2016/12/07,22:50,0.74,0.054,ND
2016/12/07,23:00,0.74,0.055,ND
2016/12/07,23:10,0.74,0.054,ND
2016/12/07,23:20,0.74,0.054,9.0
2016/12/07,23:30,0.74,0.062,ND
2016/12/07,23:40,0.73,0.065,8.9
2016/12/07,23:50,0.58,0.095,ND
